QPF
0.01 0.01 0.01 0.01 0.00 0.00 0.00 0.00 0.00 0.00 0.01 0.01 0.01 0.01 0.01 0.01 0.01 0.01 0.00 0.01 0.01 0.01 0.01 0.01 0.02 0.02 0.02 0.03 0.03 0.04 0.04 0.04 0.05 0.05 0.05 0.05 0.06 0.07
0.00 0.00 0.00 0.00 0.00 0.00 0.00 0.00 0.00 0.00 0.00 0.00 0.00 0.01 0.01 0.01 0.01 0.01 0.01 0.01 0.01 0.00 0.00 0.00 0.01 0.01 0.01 0.01 0.01 0.01 0.02 0.02 0.03 0.03 0.03 0.04 0.04 0.05
0.00 0.00 0.00 0.00 0.00 0.00 0.00 0.00 0.00 0.00 0.00 0.00 0.01 0.01 0.01 0.00 0.00 0.00 0.00 0.00 0.00 0.00 0.00 0.00 0.00 0.00 0.00 0.00 0.00 0.01 0.01 0.01 0.02 0.02 0.02 0.03 0.03 0.03
0.00 0.00 0.00 0.00 0.00 0.00 0.00 0.00 0.00 0.00 0.00 0.00 0.00 0.00 0.00 0.00 0.00 0.00 0.00 0.00 0.00 0.00 0.00 0.00 0.00 0.00 0.00 0.00 0.00 0.00 0.00 0.01 0.00 0.01 0.01 0.01 0.01 0.01
0.00 0.00 0.00 0.00 0.00 0.00 0.00 0.00 0.00 0.00 0.00 0.00 0.00 0.00 0.00 0.00 0.00 0.00 0.00 0.00 0.00 0.00 0.00 0.00 0.00 0.00 0.00 0.00 0.00 0.00 0.00 0.00 0.00 0.00 0.00 0.00 0.00 0.00
0.00 0.00 0.00 0.00 0.00 0.00 0.00 0.00 0.00 0.00 0.00 0.00 0.00 0.00 0.00 0.00 0.00 0.00 0.00 0.00 0.00 0.00 0.00 0.00 0.00 0.00 0.00 0.00 0.00 0.00 0.00 0.00 0.00 0.00 0.00 0.00 0.00 0.00
0.00 0.00 0.00 0.00 0.00 0.00 0.00 0.00 0.00 0.00 0.00 0.00 0.00 0.00 0.01 0.01 0.01 0.00 0.00 0.01 0.01 0.01 0.01 0.01 0.01 0.01 0.02 0.01 0.00 0.00 0.00 0.00 0.00 0.00 0.00 0.00 0.00 0.00
0.00 0.00 0.00 0.00 0.00 0.00 0.00 0.00 0.00 0.00 0.00 0.00 0.01 0.01 0.01 0.02 0.01 0.01 0.01 0.01 0.01 0.01 0.01 0.01 0.01 0.02 0.02 0.01 0.00 0.00 0.00 0.00 0.00 0.00 0.00 0.00 0.00 0.00
0.00 0.00 0.00 0.00 0.00 0.00 0.00 0.00 0.00 0.00 0.00 0.00 0.01 0.01 0.01 0.02 0.01 0.01 0.02 0.02 0.02 0.01 0.01 0.02 0.02 0.03 0.02 0.00 0.00 0.00 0.00 0.00 0.00 0.00 0.00 0.00 0.00 0.00
0.00 0.00 0.00 0.00 0.00 0.00 0.00 0.00 0.00 0.00 0.00 0.00 0.01 0.01 0.00 0.01 0.01 0.01 0.01 0.01 0.03 0.03 0.02 0.03 0.03 0.03 0.01 0.02 0.00 0.00 0.00 0.00 0.00 0.00 0.00 0.00 0.00 0.00
0.00 0.00 0.00 0.00 0.00 0.00 0.00 0.01 0.01 0.01 0.00 0.00 0.00 0.00 0.00 0.00 0.00 0.01 0.02 0.02 0.04 0.05 0.03 0.03 0.04 0.03 0.03 0.03 0.01 0.00 0.00 0.00 0.00 0.00 0.00 0.00 0.00 0.00
0.00 0.00 0.00 0.00 0.00 0.00 0.00 0.01 0.01 0.01 0.01 0.01 0.01 0.01 0.01 0.01 0.00 0.01 0.02 0.03 0.04 0.05 0.04 0.03 0.05 0.03 0.04 0.03 0.02 0.02 0.02 0.01 0.00 0.00 0.00 0.00 0.00 0.02
0.00 0.00 0.00 0.00 0.00 0.00 0.00 0.01 0.01 0.00 0.01 0.01 0.01 0.01 0.01 0.02 0.02 0.02 0.02 0.03 0.04 0.05 0.03 0.02 0.05 0.04 0.04 0.03 0.02 0.01 0.02 0.02 0.03 0.03 0.01 0.00 0.00 0.00
0.00 0.00 0.00 0.00 0.00 0.00 0.00 0.00 0.00 0.00 0.01 0.01 0.01 0.02 0.01 0.01 0.01 0.01 0.01 0.02 0.03 0.03 0.02 0.02 0.03 0.04 0.03 0.03 0.02 0.01 0.01 0.01 0.01 0.03 0.03 0.01 0.01 0.00
0.00 0.00 0.00 0.00 0.00 0.00 0.00 0.00 0.00 0.00 0.01 0.01 0.01 0.01 0.00 0.00 0.00 0.01 0.01 0.02 0.03 0.01 0.00 0.01 0.02 0.02 0.03 0.02 0.02 0.01 0.01 0.01 0.01 0.02 0.03 0.02 0.02 0.01
0.00 0.00 0.00 0.00 0.00 0.00 0.00 0.00 0.01 0.00 0.00 0.01 0.01 0.01 0.00 0.00 0.00 0.01 0.01 0.02 0.03 0.02 0.01 0.00 0.01 0.01 0.02 0.02 0.01 0.01 0.01 0.01 0.01 0.01 0.03 0.03 0.02 0.01
0.00 0.00 0.01 0.01 0.01 0.01 0.00 0.00 0.00 0.00 0.00 0.00 0.00 0.00 0.00 0.00 0.00 0.00 0.01 0.01 0.02 0.02 0.01 0.00 0.00 0.00 0.01 0.01 0.01 0.01 0.01 0.01 0.01 0.01 0.03 0.04 0.02 0.01
0.00 0.01 0.01 0.01 0.01 0.00 0.00 0.00 0.00 0.00 0.00 0.00 0.00 0.00 0.00 0.00 0.00 0.00 0.00 0.01 0.01 0.01 0.01 0.00 0.01 0.02 0.02 0.01 0.00 0.00 0.01 0.01 0.01 0.01 0.02 0.03 0.03 0.01
0.00 0.00 0.00 0.00 0.00 0.01 0.00 0.00 0.00 0.00 0.00 0.00 0.00 0.00 0.00 0.00 0.00 0.00 0.00 0.00 0.01 0.01 0.01 0.00 0.01 0.02 0.03 0.03 0.01 0.00 0.00 0.01 0.01 0.01 0.01 0.01 0.02 0.01
0.00 0.00 0.00 0.00 0.00 0.00 0.00 0.00 0.00 0.00 0.00 0.00 0.00 0.00 0.00 0.00 0.00 0.00 0.00 0.00 0.00 0.00 0.00 0.00 0.00 0.01 0.02 0.02 0.02 0.01 0.00 0.00 0.01 0.01 0.01 0.01 0.01 0.01
0.00 0.00 0.00 0.00 0.00 0.00 0.00 0.00 0.00 0.00 0.00 0.00 0.00 0.00 0.00 0.00 0.00 0.00 0.00 0.00 0.00 0.00 0.01 0.00 0.00 0.00 0.00 0.01 0.02 0.02 0.01 0.00 0.00 0.00 0.00 0.01 0.01 0.01
0.00 0.00 0.00 0.00 0.00 0.00 0.00 0.00 0.00 0.00 0.00 0.00 0.00 0.00 0.00 0.00 0.00 0.00 0.00 0.00 0.00 0.00 0.00 0.00 0.00 0.00 0.00 0.01 0.02 0.01 0.01 0.00 0.00 0.00 0.00 0.00 0.00 0.00
0.00 0.00 0.00 0.00 0.00 0.00 0.00 0.00 0.00 0.00 0.00 0.00 0.00 0.00 0.00 0.00 0.00 0.00 0.00 0.00 0.00 0.00 0.00 0.00 0.00 0.00 0.00 0.00 0.00 0.01 0.00 0.00 0.00 0.00 0.00 0.00 0.00 0.00
MSLP
1023.35 1023.44 1023.49 1023.48 1023.43 1023.32 1023.20 1023.08 1022.98 1022.93 1022.92 1022.96 1023.03 1023.12 1023.20 1023.26 1023.28 1023.27 1023.20 1023.10 1022.95 1022.75 1022.52 1022.24 1021.93 1021.59 1021.22 1020.83 1020.43 1020.05 1019.68 1019.34 1019.04 1018.76 1018.52 1018.30 1018.09 1017.91
1023.99 1024.08 1024.12 1024.10 1024.00 1023.85 1023.67 1023.48 1023.31 1023.18 1023.10 1023.07 1023.06 1023.08 1023.09 1023.09 1023.06 1023.00 1022.90 1022.78 1022.63 1022.46 1022.27 1022.05 1021.81 1021.55 1021.26 1020.95 1020.61 1020.27 1019.91 1019.57 1019.23 1018.91 1018.62 1018.34 1018.08 1017.85
1024.54 1024.65 1024.70 1024.66 1024.55 1024.38 1024.16 1023.92 1023.70 1023.52 1023.36 1023.26 1023.18 1023.12 1023.06 1022.99 1022.89 1022.77 1022.63 1022.48 1022.32 1022.16 1022.01 1021.85 1021.69 1021.52 1021.33 1021.12 1020.88 1020.60 1020.30 1019.98 1019.64 1019.30 1018.95 1018.62 1018.30 1018.00
1025.02 1025.14 1025.19 1025.16 1025.05 1024.86 1024.63 1024.37 1024.12 1023.88 1023.68 1023.51 1023.37 1023.23 1023.10 1022.96 1022.79 1022.61 1022.42 1022.23 1022.04 1021.88 1021.75 1021.64 1021.55 1021.47 1021.39 1021.28 1021.14 1020.96 1020.74 1020.47 1020.16 1019.81 1019.45 1019.07 1018.69 1018.32
1025.42 1025.54 1025.59 1025.57 1025.47 1025.29 1025.05 1024.79 1024.52 1024.26 1024.01 1023.80 1023.60 1023.41 1023.21 1023.00 1022.77 1022.53 1022.28 1022.03 1021.82 1021.64 1021.51 1021.42 1021.38 1021.37 1021.37 1021.36 1021.33 1021.25 1021.11 1020.92 1020.66 1020.34 1019.98 1019.58 1019.17 1018.75
1025.76 1025.87 1025.92 1025.90 1025.80 1025.63 1025.41 1025.15 1024.87 1024.59 1024.32 1024.07 1023.83 1023.59 1023.35 1023.08 1022.80 1022.51 1022.21 1021.91 1021.65 1021.44 1021.29 1021.20 1021.17 1021.20 1021.25 1021.32 1021.37 1021.38 1021.33 1021.21 1021.01 1020.75 1020.42 1020.03 1019.61 1019.18
1026.04 1026.12 1026.16 1026.14 1026.06 1025.90 1025.68 1025.43 1025.15 1024.86 1024.58 1024.30 1024.04 1023.77 1023.49 1023.19 1022.88 1022.54 1022.20 1021.86 1021.56 1021.30 1021.11 1020.99 1020.95 1020.97 1021.04 1021.15 1021.24 1021.32 1021.33 1021.28 1021.16 1020.95 1020.66 1020.31 1019.91 1019.49
1026.27 1026.32 1026.35 1026.32 1026.24 1026.09 1025.88 1025.63 1025.35 1025.06 1024.76 1024.47 1024.19 1023.90 1023.61 1023.30 1022.96 1022.61 1022.24 1021.88 1021.53 1021.23 1020.99 1020.82 1020.73 1020.72 1020.78 1020.87 1020.98 1021.08 1021.14 1021.13 1021.05 1020.90 1020.66 1020.36 1020.00 1019.60
1026.44 1026.48 1026.49 1026.46 1026.37 1026.23 1026.02 1025.77 1025.48 1025.18 1024.87 1024.57 1024.27 1023.98 1023.69 1023.38 1023.05 1022.69 1022.32 1021.94 1021.57 1021.23 1020.94 1020.72 1020.57 1020.51 1020.51 1020.56 1020.65 1020.73 1020.79 1020.80 1020.75 1020.62 1020.43 1020.16 1019.85 1019.49
1026.59 1026.61 1026.61 1026.57 1026.48 1026.33 1026.12 1025.86 1025.56 1025.24 1024.92 1024.61 1024.30 1024.01 1023.72 1023.42 1023.11 1022.77 1022.41 1022.03 1021.65 1021.29 1020.97 1020.69 1020.49 1020.36 1020.29 1020.28 1020.31 1020.35 1020.38 1020.37 1020.31 1020.19 1020.00 1019.77 1019.49 1019.17
1026.73 1026.73 1026.73 1026.68 1026.59 1026.43 1026.20 1025.93 1025.61 1025.27 1024.93 1024.59 1024.28 1023.99 1023.71 1023.43 1023.14 1022.83 1022.49 1022.13 1021.76 1021.39 1021.05 1020.74 1020.48 1020.29 1020.16 1020.08 1020.03 1020.00 1019.97 1019.91 1019.82 1019.67 1019.49 1019.26 1018.99 1018.70
1026.88 1026.88 1026.86 1026.80 1026.69 1026.52 1026.28 1025.98 1025.63 1025.27 1024.90 1024.55 1024.22 1023.92 1023.65 1023.38 1023.11 1022.83 1022.53 1022.20 1021.85 1021.49 1021.14 1020.82 1020.53 1020.29 1020.10 1019.95 1019.83 1019.73 1019.63 1019.50 1019.35 1019.17 1018.95 1018.70 1018.44 1018.17
1027.06 1027.04 1027.01 1026.93 1026.80 1026.60 1026.33 1026.01 1025.64 1025.25 1024.85 1024.48 1024.13 1023.82 1023.54 1023.28 1023.03 1022.77 1022.50 1022.20 1021.88 1021.55 1021.21 1020.89 1020.59 1020.32 1020.08 1019.88 1019.70 1019.52 1019.35 1019.16 1018.94 1018.70 1018.45 1018.18 1017.91 1017.65
1027.25 1027.21 1027.15 1027.05 1026.88 1026.66 1026.36 1026.01 1025.61 1025.19 1024.77 1024.38 1024.01 1023.69 1023.40 1023.14 1022.89 1022.65 1022.39 1022.12 1021.83 1021.52 1021.21 1020.90 1020.60 1020.32 1020.06 1019.81 1019.59 1019.35 1019.12 1018.86 1018.59 1018.31 1018.01 1017.72 1017.44 1017.19
1027.43 1027.35 1027.25 1027.11 1026.91 1026.65 1026.33 1025.95 1025.54 1025.11 1024.67 1024.26 1023.88 1023.53 1023.23 1022.96 1022.71 1022.47 1022.22 1021.96 1021.69 1021.41 1021.11 1020.82 1020.53 1020.25 1019.98 1019.72 1019.45 1019.18 1018.90 1018.60 1018.28 1017.96 1017.64 1017.34 1017.07 1016.83
1027.55 1027.43 1027.28 1027.09 1026.86 1026.57 1026.23 1025.85 1025.43 1024.99 1024.55 1024.13 1023.74 1023.38 1023.07 1022.78 1022.51 1022.26 1022.01 1021.75 1021.48 1021.21 1020.93 1020.65 1020.37 1020.10 1019.82 1019.55 1019.27 1018.97 1018.66 1018.33 1017.99 1017.65 1017.33 1017.03 1016.78 1016.58
1027.58 1027.40 1027.21 1026.98 1026.72 1026.42 1026.08 1025.70 1025.29 1024.86 1024.44 1024.02 1023.63 1023.27 1022.93 1022.63 1022.34 1022.06 1021.79 1021.52 1021.25 1020.98 1020.70 1020.43 1020.15 1019.88 1019.60 1019.32 1019.03 1018.72 1018.39 1018.05 1017.70 1017.36 1017.05 1016.78 1016.56 1016.40
1027.50 1027.27 1027.04 1026.79 1026.51 1026.22 1025.89 1025.54 1025.16 1024.77 1024.37 1023.98 1023.59 1023.22 1022.88 1022.54 1022.23 1021.92 1021.62 1021.33 1021.04 1020.75 1020.47 1020.19 1019.91 1019.63 1019.35 1019.06 1018.75 1018.43 1018.10 1017.76 1017.41 1017.09 1016.80 1016.55 1016.38 1016.28
1027.32 1027.06 1026.80 1026.55 1026.29 1026.02 1025.74 1025.43 1025.10 1024.76 1024.39 1024.02 1023.65 1023.28 1022.91 1022.55 1022.20 1021.86 1021.53 1021.20 1020.88 1020.57 1020.27 1019.98 1019.69 1019.40 1019.11 1018.80 1018.49 1018.16 1017.82 1017.47 1017.14 1016.83 1016.56 1016.36 1016.23 1016.17
1027.07 1026.81 1026.57 1026.34 1026.12 1025.90 1025.67 1025.42 1025.15 1024.86 1024.53 1024.19 1023.82 1023.44 1023.05 1022.65 1022.26 1021.88 1021.51 1021.14 1020.80 1020.46 1020.14 1019.83 1019.52 1019.22 1018.91 1018.59 1018.26 1017.92 1017.58 1017.23 1016.90 1016.60 1016.36 1016.18 1016.07 1016.05
1026.83 1026.60 1026.39 1026.21 1026.05 1025.90 1025.74 1025.56 1025.34 1025.09 1024.80 1024.46 1024.09 1023.68 1023.26 1022.83 1022.39 1021.96 1021.54 1021.15 1020.77 1020.41 1020.07 1019.74 1019.42 1019.10 1018.78 1018.45 1018.10 1017.75 1017.39 1017.04 1016.71 1016.42 1016.18 1016.00 1015.91 1015.89
1026.64 1026.46 1026.32 1026.21 1026.13 1026.05 1025.96 1025.84 1025.67 1025.45 1025.16 1024.82 1024.42 1023.98 1023.51 1023.02 1022.53 1022.06 1021.60 1021.16 1020.76 1020.39 1020.03 1019.70 1019.37 1019.04 1018.71 1018.37 1018.01 1017.65 1017.28 1016.92 1016.59 1016.28 1016.03 1015.85 1015.73 1015.69
1026.54 1026.44 1026.37 1026.35 1026.34 1026.34 1026.31 1026.23 1026.09 1025.88 1025.59 1025.22 1024.78 1024.28 1023.75 1023.20 1022.65 1022.12 1021.63 1021.16 1020.74 1020.36 1020.00 1019.67 1019.34 1019.02 1018.69 1018.35 1017.99 1017.62 1017.24 1016.87 1016.52 1016.20 1015.93 1015.72 1015.56 1015.47
Thickness
5615 5613 5612 5609 5608 5607 5605 5604 5602 5599 5593 5584 5580 5575 5570 5567 5562 5560 5557 5552 5548 5545 5541 5537 5534 5531 5528 5525 5522 5520 5517 5514 5512 5510 5508 5506 5505 5504
5600 5598 5598 5597 5595 5593 5592 5590 5588 5586 5581 5575 5568 5563 5557 5556 5551 5548 5546 5542 5538 5534 5529 5525 5522 5519 5515 5512 5509 5506 5503 5500 5498 5496 5494 5492 5490 5488
5588 5586 5583 5581 5581 5580 5578 5576 5573 5570 5567 5563 5558 5553 5546 5543 5541 5538 5536 5533 5532 5524 5519 5515 5512 5508 5504 5500 5497 5494 5491 5488 5486 5484 5481 5479 5477 5475
5576 5574 5571 5569 5566 5565 5563 5561 5558 5553 5553 5548 5546 5544 5538 5534 5530 5527 5527 5525 5521 5516 5511 5506 5502 5498 5494 5490 5486 5483 5480 5477 5474 5472 5470 5469 5466 5464
5564 5561 5558 5556 5554 5552 5550 5548 5547 5544 5540 5539 5537 5533 5530 5526 5522 5522 5520 5515 5514 5511 5505 5500 5495 5491 5486 5482 5478 5475 5471 5469 5466 5463 5461 5459 5456 5454
5551 5548 5546 5543 5541 5539 5538 5536 5534 5533 5531 5531 5529 5526 5523 5519 5516 5515 5513 5510 5508 5504 5500 5495 5490 5486 5481 5477 5472 5468 5464 5461 5458 5456 5453 5451 5448 5446
5540 5537 5532 5528 5523 5524 5525 5524 5524 5524 5525 5523 5521 5519 5514 5510 5508 5505 5504 5502 5501 5497 5494 5492 5488 5484 5478 5472 5467 5461 5458 5455 5452 5450 5447 5445 5442 5439
5530 5527 5524 5520 5515 5512 5510 5509 5507 5510 5511 5511 5512 5507 5504 5502 5498 5497 5496 5495 5494 5491 5488 5487 5485 5480 5476 5471 5462 5457 5453 5450 5448 5445 5442 5440 5437 5434
5519 5518 5517 5513 5510 5509 5506 5502 5501 5498 5495 5496 5499 5496 5495 5493 5489 5491 5489 5488 5486 5485 5483 5483 5481 5478 5473 5467 5460 5455 5451 5447 5444 5441 5439 5436 5433 5430
5510 5508 5507 5504 5501 5498 5501 5502 5500 5498 5493 5491 5490 5489 5488 5484 5483 5483 5482 5483 5484 5481 5478 5479 5478 5476 5473 5466 5458 5454 5450 5446 5442 5439 5436 5433 5430 5428
5503 5499 5498 5497 5489 5488 5493 5495 5495 5493 5488 5485 5483 5482 5479 5478 5476 5479 5483 5484 5484 5482 5478 5477 5475 5474 5472 5467 5461 5455 5451 5446 5442 5438 5434 5431 5428 5427
5498 5494 5487 5486 5483 5482 5487 5489 5488 5487 5486 5486 5483 5481 5480 5479 5475 5474 5478 5480 5480 5478 5476 5473 5472 5471 5470 5467 5463 5458 5453 5448 5443 5439 5434 5430 5427 5427
5496 5493 5485 5479 5477 5477 5477 5480 5477 5476 5481 5483 5483 5483 5482 5480 5479 5477 5475 5474 5475 5474 5473 5471 5470 5469 5468 5465 5464 5460 5455 5451 5447 5441 5437 5431 5428 5425
5487 5486 5479 5473 5472 5471 5473 5471 5472 5472 5479 5480 5480 5479 5479 5479 5477 5475 5473 5472 5470 5469 5467 5466 5467 5465 5466 5465 5463 5462 5457 5453 5449 5445 5440 5434 5431 5426
5478 5471 5470 5469 5468 5470 5467 5468 5470 5474 5475 5476 5475 5476 5476 5475 5474 5474 5474 5472 5471 5470 5469 5466 5465 5465 5465 5464 5463 5461 5458 5455 5451 5447 5444 5440 5435 5431
5474 5470 5466 5466 5467 5466 5468 5470 5470 5469 5468 5471 5472 5473 5473 5474 5475 5475 5475 5474 5474 5473 5470 5468 5466 5465 5466 5465 5464 5463 5460 5457 5454 5451 5447 5444 5441 5436
5468 5472 5471 5470 5470 5469 5468 5467 5466 5467 5467 5467 5469 5470 5472 5473 5473 5473 5473 5474 5473 5473 5473 5472 5471 5470 5469 5466 5466 5465 5463 5461 5458 5455 5451 5450 5447 5442
5463 5469 5467 5467 5466 5465 5465 5465 5464 5463 5463 5464 5466 5467 5468 5470 5471 5473 5473 5473 5473 5474 5474 5475 5475 5474 5474 5473 5465 5466 5465 5463 5462 5460 5458 5456 5453 5449
5464 5465 5463 5462 5461 5460 5460 5460 5459 5459 5458 5461 5463 5464 5466 5468 5469 5471 5472 5472 5473 5474 5475 5476 5476 5475 5474 5474 5472 5464 5466 5465 5464 5465 5464 5462 5459 5456
5463 5461 5459 5457 5456 5455 5455 5454 5454 5455 5457 5458 5460 5461 5463 5465 5467 5469 5471 5470 5472 5474 5476 5477 5476 5474 5473 5472 5474 5474 5468 5468 5467 5466 5466 5466 5466 5460
5459 5457 5455 5453 5452 5451 5451 5450 5450 5452 5453 5454 5457 5458 5461 5463 5465 5468 5470 5470 5471 5475 5476 5477 5476 5471 5474 5477 5478 5478 5477 5471 5469 5467 5467 5469 5469 5470
5455 5454 5452 5449 5448 5448 5448 5449 5450 5451 5451 5454 5455 5456 5459 5461 5464 5467 5470 5473 5475 5477 5478 5480 5481 5481 5483 5482 5482 5482 5482 5479 5477 5471 5467 5465 5466 5467
5452 5450 5450 5448 5446 5446 5446 5445 5446 5448 5449 5450 5452 5455 5458 5461 5464 5468 5471 5474 5476 5478 5480 5482 5484 5486 5486 5486 5486 5486 5485 5485 5485 5482 5479 5472 5469 5467